Location: Saint-Palais-sur-Mer
(45.6429°N, 1.0859°W)
Time: 00:32:24
(UTC+01:00)

Vanguard 1 - Pass Details

Date: 14 February 2026
Orbit: 653 x 3818 km, 34.2° (Epoch: 12 March)

Event Time Altitude Azimuth Distance (km) Brightness Sun altitude
Rises 19:39:01 0° 258° (WSW) 5,890 16.1 -12.7°
Reaches altitude 10° 19:42:20 10° 255° (WSW) 5,226 15.2 -13.3°
Maximum altitude 19:58:56 59° 182° (S) 3,831 13.0 -16.2°
Enters shadow 20:17:49 18° 113° (ESE) 6,218 13.5 -19.5°
